Theta_e
347 345 344 343 343 342 340 338 335 332 331 331 332 334 335 336 335 332 334 333 334 335 334 334 335 335 336 338 341 340 340 340 343 335 338 334 336 335 325 338 341 345 331
347 345 343 343 342 340 340 339 336 334 335 334 334 336 336 333 331 334 333 334 335 335 335 335 336 335 336 337 340 341 342 342 341 337 343 345 329 328 327 337 343 333 332
349 344 343 341 341 341 340 340 339 336 336 334 336 335 334 332 334 334 332 335 336 336 335 335 336 336 335 337 340 340 340 342 342 341 341 345 339 322 328 334 338 329 337
347 348 346 344 345 344 342 341 342 337 336 335 335 334 332 331 334 333 331 334 335 334 335 335 335 336 335 336 340 340 343 343 343 344 344 342 342 322 332 325 337 331 334
349 350 344 344 343 343 343 341 341 339 336 335 333 332 331 331 334 332 333 335 333 334 335 335 334 333 335 334 335 340 341 344 344 344 343 343 342 324 336 332 336 333 343
350 350 344 344 344 342 339 338 337 334 333 332 331 332 332 333 335 333 335 332 332 334 335 335 333 333 333 335 338 336 340 344 345 344 344 340 343 325 339 338 339 336 334
352 352 346 345 345 344 340 335 335 333 332 332 332 332 335 335 335 335 333 331 332 334 338 336 336 333 332 337 339 337 339 344 349 347 345 342 327 323 330 325 332 335 332
351 351 348 344 344 343 338 333 332 332 331 332 333 334 334 335 335 334 332 334 335 338 336 336 339 335 331 337 340 341 341 345 349 349 347 346 327 326 326 322 323 330 333
351 351 351 349 342 342 337 333 333 333 332 331 331 332 334 335 333 332 337 337 338 339 340 338 341 340 337 337 336 338 339 345 347 349 348 347 332 329 326 332 335 333 334
351 351 351 351 350 349 341 333 334 334 332 331 331 333 335 335 334 341 339 344 343 341 342 340 340 340 340 340 341 340 343 347 350 349 346 346 343 328 338 325 327 330 335
351 350 351 351 349 350 350 342 334 333 332 332 333 336 336 348 350 349 349 343 342 341 342 340 339 340 345 347 345 345 349 348 347 348 347 344 342 340 325 328 324 324 332
351 351 350 349 350 349 348 344 348 347 346 345 348 348 342 350 349 348 348 342 342 341 342 344 341 346 348 349 349 346 348 346 347 347 347 346 339 342 340 326 328 324 324
351 351 349 353 350 349 350 349 349 349 349 349 351 350 350 350 350 349 350 351 352 349 352 349 350 349 350 348 349 348 347 346 345 347 346 346 341 341 342 341 331 326 327
350 349 348 349 351 350 350 348 349 348 347 347 349 351 351 349 349 349 349 351 349 350 350 348 349 351 347 348 348 347 346 346 346 344 346 347 344 339 342 342 341 329 327
349 349 349 350 352 351 353 349 349 348 347 347 348 350 349 349 349 349 350 350 349 349 349 350 349 348 349 349 348 347 346 345 345 344 345 343 342 340 339 341 340 342 338
350 350 350 352 353 352 351 354 350 350 349 347 348 348 350 348 350 349 349 348 349 348 349 350 349 347 347 346 344 345 344 343 343 342 340 344 342 341 340 340 341 340 342
350 350 351 352 352 353 353 352 351 350 349 349 348 351 350 351 346 348 349 350 348 349 350 346 346 348 346 346 342 342 340 339 338 336 337 337 341 341 340 339 339 340 340
349 350 351 350 351 353 353 353 352 350 351 350 349 351 352 351 349 349 351 349 349 350 350 350 348 347 342 340 335 335 336 337 337 339 339 338 338 340 344 343 340 339 340
349 350 351 351 351 353 353 353 352 351 353 352 350 351 351 352 352 351 350 348 352 350 348 348 347 344 341 335 333 334 338 339 339 338 338 338 339 337 339 344 341 339 339
349 351 352 351 351 352 352 352 354 352 353 352 350 353 350 351 352 352 351 351 348 347 349 347 345 342 338 337 336 335 338 339 339 339 339 338 340 340 341 343 343 346 341
349 352 353 353 352 353 354 355 353 353 352 350 351 351 350 354 349 349 349 351 347 346 348 346 342 335 336 340 338 339 338 339 338 340 340 337 339 340 340 342 345 345 344
351 353 354 354 354 353 356 353 351 349 348 350 353 352 356 352 352 351 349 351 349 345 346 342 339 337 335 338 337 336 337 339 339 339 337 335 336 336 339 340 341 336 343
351 353 355 355 354 355 355 353 352 353 349 351 347 349 351 350 350 347 351 348 348 341 335 338 340 338 338 337 335 340 337 339 337 338 338 335 333 333 334 336 334 330 334
351 354 355 357 356 356 355 356 352 352 349 347 346 347 346 348 347 349 347 345 343 337 337 338 339 337 333 337 336 338 335 337 337 336 336 335 332 331 329 329 329 326 326
351 353 356 357 357 356 356 353 354 351 348 348 347 348 346 348 347 345 346 346 341 328 338 339 339 335 340 336 335 336 337 334 334 333 333 333 332 331 330 329 327 326 326
349 351 354 356 358 356 356 354 351 354 350 350 349 350 346 347 346 346 347 344 340 335 341 341 339 338 334 337 338 335 333 333 333 333 332 333 333 331 330 329 329 328 327
Wind_Speed
18 23 24 27 25 28 28 26 26 26 26 25 23 21 18 17 15 14 13 13 13 13 13 13 13 13 13 12 11 11 10 10 9 12 15 13 8 9 10 10 11 5 4
21 24 25 26 27 26 26 25 25 25 24 23 21 19 16 15 13 12 12 12 12 11 12 11 12 13 12 12 11 10 9 7 10 15 10 12 8 9 9 10 17 6 8
22 24 24 25 24 23 23 23 22 23 22 21 19 16 14 13 12 11 11 11 10 10 10 11 12 12 11 11 10 9 8 7 11 17 12 9 9 7 9 11 6 8 10
22 19 18 21 19 20 21 21 20 21 21 19 16 14 13 10 9 9 9 9 9 9 10 11 11 11 10 10 8 8 8 8 9 13 10 6 3 5 10 10 10 9 9
20 18 17 19 18 19 20 20 19 19 19 17 14 12 10 7 7 8 8 8 9 9 10 10 10 10 10 9 8 8 7 7 8 14 6 6 4 4 10 9 9 11 13
17 15 18 17 17 18 18 18 18 18 17 15 11 10 9 7 7 6 6 7 7 7 8 9 10 8 8 8 8 8 7 7 7 13 3 7 4 5 8 11 10 9 10
16 14 15 16 17 17 17 17 17 16 15 12 10 10 8 6 5 5 5 6 5 6 8 9 9 8 7 7 8 7 7 8 7 6 8 4 3 5 7 9 9 9 8
15 16 15 17 16 16 16 18 17 15 14 12 11 8 6 5 4 4 5 5 5 6 7 8 8 8 6 6 7 8 9 7 5 5 6 5 3 5 8 9 9 9 8
18 16 14 14 16 17 17 18 16 13 12 11 8 6 4 3 2 3 5 6 6 6 6 6 6 7 6 6 6 8 11 13 9 4 2 1 3 3 6 7 6 9 9
16 17 17 13 13 13 16 17 13 10 11 8 6 6 4 1 4 6 6 6 7 6 6 6 4 5 6 7 8 10 9 9 3 1 6 1 3 1 4 5 6 7 7
16 15 15 14 13 13 12 13 13 10 10 7 6 4 4 2 5 7 8 9 6 6 5 7 5 7 6 9 10 11 10 5 2 3 5 6 4 0 2 4 6 7 7
16 15 17 15 14 12 11 11 8 7 6 5 4 6 2 4 6 7 7 8 8 9 6 10 7 7 7 5 7 10 7 7 5 2 6 8 8 3 2 3 4 7 8
18 16 17 16 15 14 14 7 8 7 8 7 9 8 5 5 4 6 5 7 5 7 9 9 7 5 5 5 8 7 6 8 6 7 6 10 11 4 3 5 3 6 9
18 17 17 17 16 16 11 10 9 9 8 8 7 9 7 5 5 6 6 6 5 5 9 8 10 7 7 10 8 8 8 6 6 4 10 11 11 6 4 3 7 5 7
20 19 18 18 17 16 14 11 11 10 10 9 8 9 8 7 8 7 7 7 9 8 8 6 8 9 8 9 8 8 7 7 5 5 8 13 13 7 6 6 5 9 6
21 20 19 18 17 16 15 12 12 11 10 10 10 10 12 9 8 10 11 9 7 9 11 8 9 8 8 9 8 10 8 9 7 9 7 10 12 8 7 8 8 6 8
21 20 20 19 18 17 16 14 13 12 11 11 12 11 11 16 14 12 13 10 10 10 11 12 7 7 9 8 7 8 8 9 9 9 8 7 10 10 6 7 9 9 8
21 21 20 18 18 17 16 15 14 13 13 12 11 10 11 13 13 11 9 8 9 8 10 8 7 7 8 8 10 9 8 8 7 7 4 4 5 6 8 7 5 9 9
22 22 21 20 19 18 17 16 14 13 14 12 13 11 13 13 14 9 9 10 11 10 11 6 3 6 8 9 8 7 6 6 5 3 3 3 3 3 3 6 8 9 11
22 22 22 21 20 19 18 19 16 20 14 13 13 11 13 11 12 12 9 13 12 6 5 4 6 9 8 5 6 6 4 2 1 1 3 2 1 1 3 4 8 6 8
23 22 23 22 22 20 19 16 13 12 12 14 15 17 15 12 11 13 6 9 7 6 5 6 7 7 4 4 5 4 4 1 0 2 2 0 1 1 1 1 2 1 7
26 24 24 24 24 23 18 17 16 13 13 13 14 10 10 12 9 10 10 5 7 4 7 6 4 3 5 4 3 4 4 5 5 4 0 1 0 1 1 0 2 12 1
29 28 27 27 26 25 22 16 16 13 15 9 13 12 11 9 9 10 7 7 7 9 5 5 2 4 3 4 4 3 3 4 2 4 0 0 3 1 1 2 1 2 6
31 29 29 28 28 25 25 21 19 16 15 13 11 9 9 11 10 10 10 7 9 4 8 3 3 3 2 2 4 1 4 4 5 3 5 2 1 1 1 1 3 3 1
31 30 29 31 30 27 26 24 22 20 15 13 11 10 12 10 11 10 9 10 6 5 8 7 3 2 2 2 2 2 2 2 3 4 6 5 1 2 3 3 4 3 7
33 32 30 32 33 30 28 26 28 21 20 14 14 11 9 10 10 12 12 10 7 7 6 3 4 3 4 6 2 2 2 3 2 4 7 7 4 8 6 7 6 6 7
Wind_Direction
118 126 131 128 129 131 132 131 127 122 124 127 125 118 113 109 104 96 92 89 86 80 74 62 53 48 43 44 46 51 56 66 62 51 58 51 64 71 86 109 101 109 124
124 130 133 132 131 131 133 130 127 126 127 127 124 120 117 107 99 92 89 82 78 73 65 53 45 40 38 40 44 49 55 63 62 58 54 52 59 68 102 129 104 141 137
127 128 129 130 132 135 131 129 128 130 128 130 129 124 115 103 92 90 84 81 71 62 55 45 35 34 33 38 44 46 45 62 75 75 60 100 354 66 105 145 133 136 126
130 130 130 131 131 133 136 134 129 130 136 131 130 127 117 106 94 88 79 70 59 49 45 38 29 24 27 32 36 44 49 61 88 70 53 101 50 64 106 129 126 116 118
138 142 147 134 132 132 134 133 133 135 135 134 131 129 128 112 94 82 71 58 44 43 39 27 25 23 19 30 27 29 45 61 92 92 74 95 76 71 116 114 114 116 115
138 141 147 139 139 137 135 135 135 136 138 138 138 137 129 120 94 85 67 44 35 38 29 20 18 22 23 27 32 30 34 53 75 100 100 105 139 95 122 132 146 136 139
141 146 148 148 145 144 139 139 142 142 144 145 141 134 126 109 101 77 47 25 26 24 15 15 17 20 32 24 29 46 51 60 70 102 111 116 33 108 132 144 139 140 133
137 139 144 146 146 147 149 146 145 146 146 143 142 140 130 107 81 46 17 6 18 8 11 16 16 27 37 29 23 33 54 62 39 103 117 184 347 106 125 124 139 141 137
144 144 144 145 150 156 159 156 146 146 147 150 150 150 147 127 64 23 4 6 8 4 7 13 14 16 35 41 24 20 49 68 80 31 118 334 13 110 122 139 146 148 145
150 151 150 151 148 150 163 170 165 158 166 171 167 168 161 91 359 20 340 358 345 336 354 359 10 23 27 30 28 28 49 52 56 67 26 359 302 64 163 153 167 165 164
155 158 147 152 163 156 164 174 177 179 188 190 188 184 147 333 32 330 310 308 339 341 351 352 360 21 49 31 23 47 24 25 2 64 328 326 339 216 163 170 179 181 177
163 166 165 170 162 166 165 194 174 187 193 191 211 249 173 249 233 221 280 323 341 359 6 5 18 30 28 356 343 356 3 348 290 267 293 320 322 300 206 196 192 192 193
170 168 172 169 171 170 177 179 181 201 201 225 216 217 235 237 265 303 298 313 333 350 321 359 322 355 338 318 310 316 322 320 313 315 310 306 313 285 232 206 194 214 200
175 177 179 181 182 182 189 189 195 205 210 219 240 234 217 251 258 266 269 297 297 289 297 273 290 296 297 297 291 307 309 318 310 311 316 309 316 284 245 237 209 205 214
182 184 187 190 192 192 193 200 204 210 216 222 228 253 221 240 251 268 265 271 295 288 306 277 282 299 301 298 303 289 301 316 296 291 303 305 307 280 245 236 227 223 216
188 189 192 193 197 197 202 204 210 212 221 227 234 239 267 236 249 255 281 293 287 293 273 276 268 259 303 299 311 326 321 297 292 285 269 295 302 308 269 243 241 240 233
194 194 195 197 202 205 208 219 217 223 230 233 234 233 242 257 245 244 249 262 267 278 284 291 304 326 324 314 313 302 299 298 291 286 277 255 277 300 304 289 252 240 245
197 197 198 201 206 211 211 215 216 228 231 230 239 253 236 256 273 261 275 283 283 277 276 284 311 304 305 301 302 305 302 301 302 296 302 254 247 258 290 278 287 269 259
200 201 202 201 204 208 216 217 223 227 233 241 248 240 255 255 263 259 262 265 269 263 267 287 307 305 302 305 299 298 305 314 314 320 295 268 224 245 237 241 292 290 262
203 203 204 206 205 208 214 218 219 223 226 240 248 239 256 247 242 248 249 257 265 284 290 250 264 293 291 303 291 278 280 287 300 11 29 75 61 161 201 233 298 285 286
203 204 205 203 210 203 213 217 219 231 228 234 238 244 238 263 256 253 256 258 279 259 238 305 294 296 317 289 297 264 244 207 347 117 74 80 64 159 289 299 5 152 257
203 204 203 205 205 210 215 206 216 224 229 240 240 228 231 246 249 244 235 256 244 261 276 275 290 282 292 285 311 284 246 193 186 141 147 14 144 95 346 7 271 196 262
206 204 205 207 209 210 203 213 220 218 231 228 233 257 255 233 229 242 235 209 240 233 272 295 292 282 289 292 303 316 292 66 186 180 34 168 29 354 35 340 312 285 219
209 208 207 210 210 213 210 208 215 217 222 228 229 226 213 216 208 219 213 214 228 193 219 271 284 196 281 305 321 337 305 338 324 172 193 204 43 352 175 174 311 325 50
211 211 210 212 213 206 216 206 216 215 218 216 215 217 206 217 198 201 201 214 225 185 234 212 250 207 253 285 294 304 318 300 318 309 307 149 293 243 313 323 274 273 313
213 212 211 211 215 215 209 221 204 218 212 212 213 213 207 206 208 199 208 208 215 194 226 241 224 227 199 208 221 272 275 290 319 304 295 292 287 285 259 283 279 283 277